TimeHST,TemperatureF,Dew PointF,Humidity,Sea Level PressureIn,VisibilityMPH,Wind Direction,Wind SpeedMPH,Gust SpeedMPH,PrecipitationIn,Events,Conditions,WindDirDegrees,DateUTC
12:53 AM,73.9,64.9,73,29.96,10.0,East,5.8,-,N/A,,Clear,80,2013-11-05 10:53:00
1:53 AM,73.0,64.0,73,29.95,10.0,ENE,5.8,-,N/A,,Clear,60,2013-11-05 11:53:00
2:53 AM,73.0,64.0,73,29.93,10.0,ENE,4.6,-,N/A,,Clear,70,2013-11-05 12:53:00
3:53 AM,72.0,64.0,76,29.92,10.0,NE,5.8,-,N/A,,Clear,50,2013-11-05 13:53:00
4:53 AM,73.0,64.0,73,29.92,10.0,Calm,Calm,-,N/A,,Clear,0,2013-11-05 14:53:00
5:53 AM,73.0,62.1,68,29.93,10.0,SE,3.5,-,N/A,,Clear,130,2013-11-05 15:53:00
6:53 AM,73.0,63.0,71,29.95,10.0,ESE,6.9,-,N/A,,Clear,110,2013-11-05 16:53:00
7:53 AM,78.1,64.0,62,29.96,10.0,SE,4.6,-,N/A,,Clear,130,2013-11-05 17:53:00
8:53 AM,81.0,66.0,60,29.97,10.0,South,6.9,-,N/A,,Clear,170,2013-11-05 18:53:00
9:53 AM,82.0,66.9,60,29.99,10.0,South,6.9,-,N/A,,Clear,190,2013-11-05 19:53:00
10:53 AM,82.0,68.0,62,29.98,10.0,South,10.4,-,N/A,,Clear,190,2013-11-05 20:53:00
11:53 AM,82.0,68.0,62,29.96,10.0,SSW,10.4,-,N/A,,Clear,210,2013-11-05 21:53:00
12:53 PM,84.0,69.1,61,29.94,10.0,WSW,9.2,-,N/A,,Clear,240,2013-11-05 22:53:00
1:53 PM,82.9,69.1,63,29.91,10.0,WSW,8.1,-,N/A,,Clear,240,2013-11-05 23:53:00
2:53 PM,82.9,69.1,63,29.91,10.0,WSW,8.1,-,N/A,,Scattered Clouds,250,2013-11-06 00:53:00
3:53 PM,82.9,69.1,63,29.91,10.0,WSW,8.1,-,N/A,,Clear,250,2013-11-06 01:53:00
4:53 PM,81.0,69.1,67,29.92,10.0,West,6.9,-,N/A,,Scattered Clouds,260,2013-11-06 02:53:00
5:53 PM,80.1,70.0,71,29.94,10.0,West,5.8,-,N/A,,Partly Cloudy,260,2013-11-06 03:53:00
6:53 PM,80.1,70.0,71,29.95,10.0,WNW,6.9,-,N/A,,Overcast,290,2013-11-06 04:53:00
7:53 PM,80.1,69.1,69,29.96,10.0,WNW,4.6,-,N/A,,Mostly Cloudy,300,2013-11-06 05:53:00
8:53 PM,79.0,70.0,74,29.96,10.0,NNW,5.8,-,N/A,,Partly Cloudy,330,2013-11-06 06:53:00
9:12 PM,78.8,69.8,74,29.97,10.0,NNW,3.5,-,N/A,,Mostly Cloudy,340,2013-11-06 07:12:00
9:53 PM,80.1,70.0,71,29.97,10.0,WNW,4.6,-,N/A,,Overcast,300,2013-11-06 07:53:00
10:53 PM,79.0,70.0,74,29.96,10.0,WNW,6.9,-,N/A,,Overcast,300,2013-11-06 08:53:00
11:10 PM,78.8,69.8,74,29.96,10.0,WNW,8.1,-,N/A,,Overcast,300,2013-11-06 09:10:00
11:53 PM,79.0,70.0,74,29.96,10.0,West,6.9,-,N/A,,Overcast,280,2013-11-06 09:53:00